Regional Weather Roundup
Issued by NWS

Home | Current Version | Previous Version | Text Only | Print | Product List | Glossary Off
Versions: 1 2 3 4 5 6 7 8 9 10 11 12 13 14 15 16 17 18 19 20 21 22 23 24 25 26 27 28 29 30 31 32 33 34 35 36 37 38 39 40 41 42 43 44 45 46 47 48 49 50

000
ASUS43 KMPX 272301
RWRMN
WEATHER ROUNDUP FOR MINNESOTA
NATIONAL WEATHER SERVICE TWIN CITIES/CHANHASSEN MN
600 PM CDT WED JUL 27 2016


NOTE: "FAIR" INDICATES FEW OR NO CLOUDS BELOW 12,000 FEET WITH NO
SIGNIFICANT WEATHER AND/OR OBSTRUCTIONS TO VISIBILITY. N/A MEANS
CURRENT SKY AND/OR WEATHER CONDITIONS ARE NOT AVAILABLE.

MNZ060>063-068>070-280000-
   Twin Cities Metro

CITY           SKY/WX    TMP DP  RH WIND       PRES   REMARKS
TWIN CITIES    PTSUNNY   76  67  73 NW5       29.94S
ST PAUL        CLOUDY    71  67  87 CALM      29.94F
CRYSTAL        CLOUDY    73  64  73 N9        29.93S
BLAINE         PTSUNNY   75  70  83 N10       29.95R
LAKEVILLE      LGT RAIN  70  70 100 N5        29.95R
EDEN PRAIRIE   CLOUDY    76  67  73 N9        29.93S
LAKEVILLE      LGT RAIN  70  70 100 N5        29.95R
SOUTH ST PAUL  CLOUDY    71  67  87 NE3       29.94S
LAKE ELMO      PTSUNNY   70  68  94 CALM      29.95S
$$
MNZ001>005-007-008-013>017-022>024-027-028-280000-
   Northwest Minnesota

CITY           SKY/WX    TMP DP  RH WIND       PRES   REMARKS
BEMIDJI        CLOUDY    72  61  68 E8        30.04S
HALLOCK        SUNNY     75  59  57 N14G22    30.05F
ROSEAU         MOSUNNY   75  63  64 E8        30.06R
WARROAD        SUNNY     75  63  64 NE13      30.07S
THIEF RVR FALL CLOUDY    75  60  59 NE12      30.04S
CROOKSTON      SUNNY     77  61  57 N17G24    30.03S
FOSSTON        PTSUNNY   75  64  69 CALM      30.03S
DETROIT LAKES  SUNNY     75  55  50 N5        30.03S
MOORHEAD       SUNNY     75  59  57 N12       30.02F
PARK RAPIDS    CLOUDY    73  62  68 NE7       30.02S
MAHNOMEN       FAIR      77  60  54 N8        30.01F
$$
MNZ006-009>011-018-025>026-280000-
   North Central Minnesota

CITY           SKY/WX    TMP DP  RH WIND       PRES   REMARKS
BAUDETTE       SUNNY     77  56  48 N12       30.04F
FLAG ISLAND    SUNNY     72  55  56 NE13      30.07S
INTL FALLS     SUNNY     75  55  49 NE9       30.03F
WASKISH        CLOUDY    75  63  64 S5        30.03F
BIG FORK       MOSUNNY   73  63  68 CALM      30.04S
LONGVILLE      PTSUNNY   72  63  73 NE7       30.03S
GRAND RAPIDS   CLOUDY    70  62  76 CALM      30.05S
CRANE LAKE     CLOUDY    70  57  64 NE1       30.05S
ORR            MOSUNNY   73  55  53 CALM      30.01F
COOK           PTSUNNY   72  61  68 CALM      30.04S
WALKER         CLOUDY    69  62  78 E5        30.03S
$$
MNZ012-019>021-037-280000-
   Northeast Minnesota

CITY           SKY/WX    TMP DP  RH WIND       PRES   REMARKS
DULUTH         CLOUDY    63  58  83 NE9       30.04S
ELY            PTSUNNY   70  63  78 S5        30.03F
HIBBING        CLOUDY    70  62  76 E6        30.03S
EVELETH        PTSUNNY   70  61  72 E3        30.04F
DULUTH HARBOR  CLOUDY    63  61  94 NE16      30.02F
TWO HARBORS    CLOUDY    66  61  82 NE6       30.02S
SILVER BAY     PTSUNNY   64  59  82 E5        30.03R
GRAND MARAIS     N/A     65  54  67 E3        30.02F
G MARAIS ARPRT CLOUDY    63  54  72 CALM      30.06F
$$
MNZ029>031-032-039>041-046>048-054>057-064-280000-
   West Central Minnesota

CITY           SKY/WX    TMP DP  RH WIND       PRES   REMARKS
FERGUS FALLS   SUNNY     75  57  53 N8G17     30.01F
WHEATON        SUNNY     81  61  50 N10G16    30.02F
MORRIS         SUNNY     81  61  50 N14       29.98F
ALEXANDRIA     SUNNY     78  61  55 NE9       30.01F
ELBOW LAKE     FAIR      76  60  57 W13       30.00F
WADENA         PTSUNNY   72  63  73 N8        30.01S
GLENWOOD       SUNNY     77  64  65 N9        30.00F
APPLETON       SUNNY     81  61  50 N14       29.97F
BENSON         SUNNY     79  61  53 NE9G21    29.97F
ORTONVILLE     SUNNY     79  59  50 N9        30.00S
MADISON        SUNNY     79  61  53 N12       29.99S
WILLMAR        FAIR      79  66  65 N15       29.97F
$$
MNZ033>034-036-042>043-049>051-058-059-280000-
   Central Minnesota

CITY           SKY/WX    TMP DP  RH WIND       PRES   REMARKS
ST CLOUD       CLOUDY    74  65  73 N10       29.97R
SAUK CENTRE    FAIR      76  62  61 N13       29.99S
PAYNESVILLE    MOSUNNY   76  63  64 N9G16     29.98S
AITKIN         CLOUDY    70  61  73 NW6       30.01S
PINE RIVER     PTSUNNY   72  63  73 NE9       30.05R
BRAINERD       CLOUDY    69  64  84 NE12      30.02S
STAPLES        SUNNY     75  63  64 N6        30.00F
LONG PRAIRIE   PTSUNNY   75  63  64 N7        30.00S
LITTLE FALLS   CLOUDY    68  63  83 NE5       30.00R
LITCHFIELD     SUNNY     77  66  69 N13       29.97F
BUFFALO        PTSUNNY   76  65  68 N7        29.96F
MAPLE LAKE     MOSUNNY   77  68  75 N6        29.97S
HUTCHINSON     PTSUNNY   76  71  85 N8        29.97F
$$
MNZ037-044-045-052-053-280000-
   East Central Minnesota

CITY           SKY/WX    TMP DP  RH WIND       PRES   REMARKS
PRINCETON      RAIN      72  66  83 N7        29.98R
MORA           CLOUDY    64  61  88 NE7       30.01R
CAMBRIDGE      CLOUDY    70  63  78 N6        29.95S
RUSH CITY      RAIN      67  65  93 NE5       29.97R
MOOSE LAKE     CLOUDY    63  57  82 NE6       30.00S
HINCKLEY       CLOUDY    66  64  94 N8        29.99R
CLOQUET        CLOUDY    63  55  77 E8        30.03S
MCGREGOR       MOSUNNY   70  61  73 NE7       30.02S
$$
MNZ071>073-080-081-089-090-097-098-280000-
   Southwest Minnesota

CITY           SKY/WX    TMP DP  RH WIND       PRES   REMARKS
MONTEVIDEO     MOSUNNY   79  64  61 NE15      29.99F
GRANITE FALLS  MOSUNNY   81  66  61 N12       29.98F
CANBY          MOSUNNY   80  64  59 N8        30.01R
MARSHALL       MOSUNNY   79  66  64 N16       29.98S
REDWOOD FALLS  MOSUNNY   82  65  56 N9        29.95F
OLIVIA         MOSUNNY   79  64  61 N14       29.96S
PIPESTONE      MOSUNNY   81  63  54 NE10      30.00F
WINDOM         MOSUNNY   79  64  61 NW10      29.97F
WORTHINGTON    MOSUNNY   79  66  64 N13       29.99F
JACKSON        MOSUNNY   81  64  57 NW10G16   29.97F
TRACY          SUNNY     80  68  67 N10G20    29.98F
SLAYTON        MOSUNNY   80  65  59 N8        30.00F
$$
MNZ065>067-074>077-082>085-091>093-280000-
   South Central Minnesota

CITY           SKY/WX    TMP DP  RH WIND       PRES   REMARKS
MANKATO        CLOUDY    75  64  69 N17G23    29.95R
NEW ULM        MOSUNNY   81  66  61 NE14G24   29.95R
ST JAMES       MOSUNNY   77  63  61 NW6G16    29.95S
FAIRMONT       SUNNY     81  64  57 NW14      29.94S
GLENCOE        CLOUDY    74  71  91 N3        29.95F
FARIBAULT      CLOUDY    72  70  94 N7        29.95R
OWATONNA       TSTM      72  64  78 CALM      29.96R
WASECA         CLOUDY    77  70  78 N17G25    29.96R
ALBERT LEA     CLOUDY    72  70  94 NW8G17    29.97R
$$
MNZ078>079-086>088-094>096-280000-
   Southeast Minnesota

CITY           SKY/WX    TMP DP  RH WIND       PRES   REMARKS
ROCHESTER      PTSUNNY   77  66  68 W8        29.97R
RED WING       RAIN      70  64  83 CALM      29.94S
STANTON        CLOUDY    73  66  78 CALM      29.93F
DODGE CENTER   TSTM      72  64  78 NW15G22   29.98R
WINONA         SUNNY     81  64  57 W10       29.93R
AUSTIN         CLOUDY    75  64  69 W5        29.97R
PRESTON        MOSUNNY   78  65  64 W7        29.97R
$$
ABBREVIATIONS USED IN REMARKS
   TC - TEMPERATURES IN CELSIUS
  WCI - WIND CHILL INDEX
   HX - HEAT INDEX
  VSB - VISIBILITY
$$




USA.gov is the U.S. government's official web portal to all federal, state and local government web resources and services.